Regional Weather Roundup
Issued by NWS Sioux Falls, SD

Home | Current Version | Previous Version | Text Only | Print | Product List | Glossary On
Versions: 1 2 3 4 5 6 7 8 9 10 11 12 13 14 15 16 17 18 19 20 21 22 23 24 25 26 27 28 29 30 31 32 33 34 35 36 37 38 39 40 41 42 43 44 45 46 47 48 49 50
651
ASUS43 KFSD 090610
RWRFSD

WEATHER ROUNDUP FOR SE SOUTH DAKOTA/SW MINNESOTA/NW IOWA
NATIONAL WEATHER SERVICE SIOUX FALLS SD
1200 AM CST TUE FEB 09 2016

NOTE: "FAIR" INDICATES FEW OR NO CLOUDS BELOW 12,000 FEET WITH NO
SIGNIFICANT WEATHER AND OR OBSTRUCTIONS TO VISIBILITY.


SDZ038>040-050-052>070-090700-
SOUTHEAST SOUTH DAKOTA

CITY           SKY/WX    TMP DP  RH WIND       PRES   REMARKS
BROOKINGS      FLURRIES   9   4  80 N22G29    30.11S WCI -11
CHAMBERLAIN    MOCLDY    26  16  67 N16       30.22R WCI  13
6HR MIN TEMP:  26; 6HR MAX TEMP:  32;

HURON          CLEAR     17  11  77 N18G26    30.21R WCI   1
6HR MIN TEMP:  17; 6HR MAX TEMP:  29;

MADISON        CLOUDY    12   9  85 N29       30.12S WCI  -9
MITCHELL       CLEAR     20  13  74 N16       30.22R WCI   6
6HR MIN TEMP:  20; 6HR MAX TEMP:  32;

SIOUX FALLS    CLEAR     14   6  70 N26G40    30.12R WCI  -6
6HR MIN TEMP:  14; 6HR MAX TEMP:  24;

WINNER         MOCLDY    28  19  69 NW8       30.21R WCI  20
YANKTON        CLEAR     21  12  68 NW22      30.16R WCI   5
$$

MNZ071-072-080-081-089-090-097-098-090700-
SOUTHWEST MINNESOTA

CITY           SKY/WX    TMP DP  RH WIND       PRES   REMARKS
FAIRMONT       CLOUDY    10   1  67 NW26G35   29.99S WCI -11
JACKSON        CLOUDY    10   3  72 NW28G36   30.01S HAZE    WCI -11
LUVERNE        CLEAR     12   9  85 N23G30    30.10R HAZE    WCI  -7
MARSHALL       CLEAR      9   4  80 N28G33    30.10R WCI -13
6HR MIN TEMP:   8; 6HR MAX TEMP:  14; 6HR PCP: TRACE;

MONTEVIDEO     CLOUDY     9   3  78 N22G29    30.14S WCI -11
PIPESTONE      CLEAR     10   1  67 N21G29    30.08R WCI  -9
REDWOOD FALLS  CLOUDY    10   2  69 N13G28    30.08R WCI  -5
TRACY          CLEAR     10   5  81 N23G35    30.09R WCI -11
WINDOM         LGT SNOW   9   3  78 NW32      30.03R WCI -15
WORTHINGTON    CLOUDY   N/A N/A N/A N25       30.05R
$$

IAZ001>003-012>014-020>022-031-032-NEZ013-014-SDZ071-090700-
NORTHWEST IOWA

CITY           SKY/WX    TMP DP  RH WIND       PRES   REMARKS
CHEROKEE       CLOUDY    13   9  83 N15G28    30.08R FOG     WCI  -3
DENISON        MOCLDY    16  10  79 N22G31    30.04S WCI  -2
ESTHERVILLE    CLOUDY     9   4  80 N26G36    30.01F WCI -13
LE MARS        CLEAR     18  12  79 N20G29    30.12R WCI   1
ORANGE CITY    CLEAR     12   9  85 N18G28    30.08R WCI  -5
SHELDON        LGT SNOW  10   7  85 N26G35    30.06R WCI -11
SIOUX CITY     CLEAR     22  11  62 N26G37    30.10R WCI   5
6HR MIN TEMP:  22; 6HR MAX TEMP:  28;

SPENCER        CLOUDY    10   3  73 N26G38    30.05R BLWGSNOWWCI -11
6HR MIN TEMP:   9; 6HR MAX TEMP:  15; 6HR PCP: TRACE;

STORM LAKE     CLOUDY    10   7  85 N30G37    30.03R WCI -12
$$

ABBREVIATIONS USED IN REMARKS
   TC - TEMPERATURE IN CELSIUS
  WCI - WIND CHILL INDEX
   HX - HEAT INDEX
  VSB - VISIBILITY





USA.gov is the U.S. government's official web portal to all federal, state and local government web resources and services.